Hourly Data Report for May 14, 2012

All times are specified in Local Standard Time (LST). Add 1 hour to adjust for Daylight Saving Time where and when it is observed.

YARMOUTH A
NOVA SCOTIA

43°49'37.000" N
66°05'17.000" W
42.90 m
8206495
71603
YQI

Download Data

Hourly Data (May 2012)
Hourly Data Report for May 14, 2012
Temp Definition
°C
Dew Point Temp Definition
°C
Rel Hum Definition
%
Wind Dir Definition
10's deg

Wind Spd Definition
km/h
Visibility Definition
km
Stn Press Definition
kPa
Hmdx Definition


Wind Chill Definition


Weather Definition


TIME
00:00 Legend Double Dagger 9.1 8.8 98 12 9 8.1 101.69     Fog
01:00 Legend Double Dagger 9.0 8.7 98 12 11 4.8 101.64     Fog
02:00 Legend Double Dagger 8.8 8.5 98 13 7 4.8 101.64     Fog
03:00 Legend Double Dagger 8.6 8.3 98 10 7 4.8 101.64     Fog
04:00 Legend Double Dagger 8.5 8.4 99 8 7 3.2 101.66     Fog
05:00 Legend Double Dagger 8.0 8.0 100 12 10 1.6 101.66     Fog
06:00 Legend Double Dagger 9.0 8.9 99 13 10 6.4 101.70     Fog
07:00 Legend Double Dagger 10.8 9.9 94 17 16 6.4 101.74     Fog
08:00 Legend Double Dagger 11.8 10.6 92 18 14 10.0 101.77     Cloudy
09:00 Legend Double Dagger 14.0 11.0 82 20 15 10.0 101.80     LegendNANA
10:00 Legend Double Dagger 13.9 10.9 82 19 14 10.0 101.80     LegendNANA
11:00 Legend Double Dagger 14.1 11.1 82 19 16 10.0 101.79     Cloudy
12:00 Legend Double Dagger 14.1 10.6 79 21 18 10.0 101.79     LegendNANA
13:00 Legend Double Dagger 13.9 10.7 81 21 15 10.0 101.77     LegendNANA
14:00 Legend Double Dagger 13.9 10.7 81 21 14 10.0 101.74     Cloudy
15:00 Legend Double Dagger 13.8 11.2 84 22 15 10.0 101.75     LegendNANA
16:00 Legend Double Dagger 13.2 10.8 85 23 16 10.0 101.78     LegendNANA
17:00 Legend Double Dagger 12.4 10.7 89 18 12 10.0 101.77     Cloudy
18:00 Legend Double Dagger 12.1 10.4 89 22 13 10.0 101.78     LegendNANA
19:00 Legend Double Dagger 11.1 9.7 91 19 10 9.7 101.80     Fog
20:00 Legend Double Dagger 10.8 9.7 93 20 9 10.0 101.84     Cloudy
21:00 Legend Double Dagger 10.7 9.5 92 20 12 10.0 101.89     LegendNANA
22:00 Legend Double Dagger 11.9 10.0 88 22 18 10.0 101.88     LegendNANA
23:00 Legend Double Dagger 12.8 10.4 85 23 22 10.0 101.88     Cloudy

Notes on Data Quality.

Legend

  • E = Estimated
  • M = Missing
  • NA = Not Available
  • ‡ = Partner data that is not subject to review by the National Climate Archives
Date modified: